Flag for Vietnam Weather past 2 weeks in Hanoi, Vietnam

Now
59 °F

Partly cloudy.


Feels Like: 57 °F
Forecast: 56 / 62 °F
Wind: 10 mph from Northeast

Location: Ha Noi Airport

Current Time: Jan 31, 2015 at 1:03:06 AM

Latest Report: Jan 31, 2015 at 12:30 AM


Visibility: N/A

Pressure: 30.18 "Hg

Humidity: 77%

Dew point: 52 °F

Location of HanoiLocation

Historic Weather in Hanoi — Graph

°F

Hanoi temperature yesterday

Maximum temperature yesterday: 70 °F (at 12:00 AM)
Minimum temperature yesterday: 59 °F (at 7:30 PM)
Average temperature yesterday: 65 °F

Past Weeks' High & Low Weather Summary

 TemperatureHumidityPressure
High81 °F (Jan 25, 3:00 PM)100% (Jan 16, 6:00 AM)30.30 "Hg (Jan 16, 6:00 AM)
Low52 °F (Jan 16, 4:30 AM)33% (Jan 17, 3:30 PM)29.86 "Hg (Jan 24, 3:00 PM)
Average67 °F75%30.08 "Hg
* Reported Midnight between Jan 15 and Jan 16 — Midnight between Jan 30 and Jan 31, Hanoi, Weather by CustomWeather, © 2014

Note: Actual official high and low records may vary slightly from our data, if they occured in-between our weather recording intervals... More about our weather records

Advertising

Hanoi weather history for previous 24 hours

 ConditionsComfort  
Time TempWeatherWind HumidityBarometerVisibility
12:00 AM
Jan 31
59 °FPartly cloudy.12 mph77%30.18 "HgN/A
11:30 PM
Jan 30
59 °FPartly cloudy.14 mph77%30.18 "HgN/A
11:00 PM59 °FPartly cloudy.13 mph77%30.18 "HgN/A
10:30 PM59 °FPartly cloudy.14 mph77%30.18 "HgN/A
10:00 PM59 °FPartly cloudy.14 mph77%30.18 "HgN/A
9:30 PM59 °FPartly cloudy.16 mph77%30.15 "HgN/A
9:00 PM61 °FPartly cloudy.14 mph77%30.15 "HgN/A
8:30 PM61 °FPartly cloudy.13 mph77%30.15 "HgN/A
8:00 PM61 °FPartly cloudy.12 mph83%30.15 "HgN/A
7:30 PM59 °FLight rain. Partly cloudy.13 mph88%30.15 "Hg6 mi
7:00 PM61 °FLight rain. Partly cloudy.15 mph83%30.12 "Hg5 mi
6:30 PM61 °FLight rain. Partly cloudy.14 mph83%30.12 "Hg5 mi
6:00 PM61 °FPartly cloudy.16 mph83%30.12 "Hg6 mi
5:30 PM61 °FBroken clouds.16 mph83%30.09 "HgN/A
5:00 PM61 °FBroken clouds.17 mph83%30.09 "Hg6 mi
4:30 PM61 °FBroken clouds.17 mph83%30.09 "HgN/A
4:00 PM61 °FBroken clouds.17 mph83%30.07 "Hg6 mi
3:30 PM63 °FBroken clouds.16 mph83%30.07 "Hg6 mi
3:00 PM63 °FLight rain. Broken clouds.14 mph83%30.07 "Hg4 mi
2:30 PM63 °FLight rain. Broken clouds.14 mph88%30.07 "Hg4 mi
2:00 PM63 °FLight rain. Broken clouds.15 mph88%30.09 "Hg4 mi
1:30 PM64 °FBroken clouds.14 mph88%30.09 "Hg3 mi
1:00 PM66 °FBroken clouds.13 mph83%30.09 "Hg4 mi
12:30 PM70 °FBroken clouds.15 mph78%30.09 "Hg3 mi
12:00 PM70 °FFog.12 mph78%30.12 "Hg3 mi
11:30 AM70 °FFog.13 mph78%30.12 "Hg3 mi
11:00 AM70 °FPartly sunny.13 mph78%30.12 "Hg3 mi
10:30 AM70 °FPartly sunny.14 mph78%30.12 "Hg4 mi
10:00 AM70 °FPartly sunny.14 mph78%30.12 "Hg4 mi
9:30 AMN/APartly sunny.14 mphN/AN/A4 mi
9:00 AM70 °FPartly sunny.14 mph78%30.12 "Hg4 mi
8:30 AM68 °FPartly sunny.13 mph83%30.09 "Hg4 mi
8:00 AM68 °FPartly sunny.13 mph83%30.09 "Hg4 mi
7:30 AM68 °FPartly sunny.12 mph83%30.09 "Hg4 mi
7:00 AM68 °FPartly sunny.9 mph83%30.07 "Hg4 mi
6:30 AM68 °FPassing clouds.10 mph83%30.07 "Hg4 mi
6:00 AM68 °FPassing clouds.9 mph83%30.04 "Hg4 mi
5:30 AM68 °FPassing clouds.9 mph83%30.04 "Hg4 mi
5:00 AM68 °FPassing clouds.9 mph83%30.04 "Hg4 mi
4:30 AM68 °FPassing clouds.7 mph88%30.01 "Hg4 mi
4:00 AM68 °FPassing clouds.6 mph88%30.01 "Hg4 mi
3:30 AM68 °FPassing clouds.6 mph88%30.01 "Hg4 mi
3:00 AM68 °FPassing clouds.7 mph88%30.01 "Hg4 mi
2:30 AM68 °FPassing clouds.8 mph88%30.01 "Hg3 mi
2:00 AM68 °FPassing clouds.7 mph88%30.04 "Hg4 mi
1:30 AM68 °FPartly cloudy.9 mph88%30.04 "Hg4 mi
1:00 AM70 °FPartly cloudy.10 mph78%30.04 "Hg4 mi
Weather by CustomWeather, © 2014

See weather overviewHow to use our weather pages